"Pseudo-MPEC" for P22oZGo

Created 2026 Aug 14 1:35:22 UT using Find_Orb

Click here for an explanation of pseudo-MPECs

 
 Astrometry: 
     P22oZGo*0C2026 08 08.56353800 08 46.431-12 59 30.40   ~88Fo 20.79wXNEOCPF52
     P22oZGo*0C2026 08 08.56734300 08 46.581-12 59 27.60   ~88FK 20.85wXNEOCPF52
     P22oZGo 0C2026 08 08.57444800 08 46.864-12 59 22.40   ~88Fo 20.99wXNEOCPF52
     P22oZGo 0C2026 08 08.57824500 08 47.018-12 59 19.59   ~88FK 20.96wXNEOCPF52
     P22oZGo 0C2026 08 08.58529100 08 47.283-12 59 14.34   ~88Fo 20.99wXNEOCPF52
     P22oZGo 0C2026 08 08.58908800 08 47.450-12 59 11.65   ~88FK 20.94wXNEOCPF52
     P22oZGo 0C2026 08 08.59611900 08 47.719-12 59 06.18   ~88Fo 20.99wXNEOCPF52
     P22oZGo 0C2026 08 08.59991700 08 47.874-12 59 03.59   ~88FK 21.07wXNEOCPF52
     P22oZGo 1C2026 08 09.10205000 09 11.668-12 53 02.00   ~897o 19.8 GXNEOCP033
     P22oZGo 1C2026 08 09.10316000 09 11.678-12 53 01.20   ~897o 20.3 GXNEOCP033
     P22oZGo KC2026 08 12.32478000 11 23.78 -12 13 34.0    ~8C8K 20.8 GVNEOCPH21
     P22oZGo KC2026 08 12.32791700 11 23.88 -12 13 31.5    ~8C8K 20.6 GVNEOCPH21

Station data:
(033) Karl Schwarzschild Observatory, Tautenburg  (N50.980139 E11.711240)
   Germany.  Observer B. Stecklum. 1.34-m f/3 Schmidt + CCD.
(F52) Pan-STARRS 2, Haleakala  (N20.707382 W156.255910)  US/Hawaii.
   Observers J. Herman, T. Lowe, P. Minguez, A. Schultz, I. Smith. Measurers
   K. Chambers, T. de Boer, J. Fairlamb, H. Gao, M. Huber, C.-C. Lin, E.
   Magnier, Y. Ramanjooloo, R. Wainscoat, R. Weryk. 1.8-m Ritchey-Chrétien +
   CCD.
(H21) Astronomical Research Observatory, Westfield  (N39.483054 W87.968270)
   US/Illinois.  Observer R. Holmes. Measurers S. Foglia, L. Buzzi, T.
   Linder, R. Holmes. 0.40-m f/5.32 astrograph + CCD.

Orbital elements:  P22oZGo
   Perihelion 2026 Aug 7.980470 +/- 1.19 TT = 23:31:52.6 (JD 2461260.480470)
Epoch 2026 Aug 12.0 TT = JDT 2461264.5   Earth MOID: 0.3784   Ma: 0.0254
M   1.188528592 +/- 0.32            (J2000 ecliptic)             AutoNEOCP
n   0.295688462 +/- 0.0105          Peri.  319.160003 +/- 1.1
a   2.231412166 +/- 0.053           Node     8.052019 +/- 0.35
e   0.38138754 +/- 0.0123           Incl.    6.402715 +/- 0.06
P   3.33326                H 20.51  G  0.15   U  9.7
q 1.380379367 +/- 0.0059    Q 3.082444965 +/- 0.101
From 12 observations 2026 Aug. 8-12; mean residual 0".11
Residuals in arcseconds: 
260808 F52  .08+  .03-    260808 F52  .15-  .03+    260809 033  .23+  .04+    
260808 F52  .05+  .02-    260808 F52  .07+  .08-    260809 033  .28-  .02+    
260808 F52  .05+  .05-    260808 F52  .10-  .19+    260812 H21  .05-  .11-    
260808 F52  .08+  .03-    260808 F52  .06-  .03-    260812 H21  .07+  .10+    

Ephemerides (geocentric):
Date (UTC) HH   RA             Dec           delta  r     elong  mag " sig PA
---- --------  ------------   ------------  ------ ------ -----  --- --------
2026 08 14 02  00 12 21.430   -11 51 45.41  .43724 1.3815 141.3 20.6 1.58 119
2026 08 14 03  00 12 22.681   -11 51 14.75  .43714 1.3815 141.3 20.6 1.62 119
2026 08 14 04  00 12 23.926   -11 50 44.09  .43704 1.3815 141.3 20.6 1.66 118
2026 08 14 05  00 12 25.166   -11 50 13.43  .43694 1.3815 141.4 20.6 1.71 118
2026 08 14 06  00 12 26.401   -11 49 42.77  .43684 1.3815 141.4 20.6 1.75 118
2026 08 14 07  00 12 27.629   -11 49 12.10  .43675 1.3816 141.4 20.6 1.80 118
2026 08 14 08  00 12 28.852   -11 48 41.44  .43665 1.3816 141.5 20.6 1.84 118
2026 08 14 09  00 12 30.070   -11 48 10.77  .43655 1.3816 141.5 20.6 1.89 118
2026 08 14 10  00 12 31.282   -11 47 40.11  .43645 1.3816 141.5 20.6 1.94 117
2026 08 14 11  00 12 32.488   -11 47 09.44  .43636 1.3816 141.5 20.6 1.99 117
2026 08 14 12  00 12 33.689   -11 46 38.77  .43626 1.3816 141.6 20.6 2.03 117
2026 08 14 13  00 12 34.884   -11 46 08.10  .43616 1.3817 141.6 20.6 2.08 117
2026 08 14 14  00 12 36.074   -11 45 37.43  .43607 1.3817 141.6 20.6 2.13 117
2026 08 14 15  00 12 37.258   -11 45 06.76  .43597 1.3817 141.7 20.6 2.18 117
2026 08 14 16  00 12 38.437   -11 44 36.09  .43587 1.3817 141.7 20.6 2.23 117
2026 08 14 17  00 12 39.610   -11 44 05.41  .43578 1.3817 141.7 20.6 2.28 117
2026 08 14 18  00 12 40.777   -11 43 34.74  .43568 1.3817 141.8 20.6 2.33 116
2026 08 14 19  00 12 41.939   -11 43 04.06  .43558 1.3818 141.8 20.6 2.39 116
2026 08 14 20  00 12 43.095   -11 42 33.38  .43549 1.3818 141.8 20.6 2.44 116
2026 08 14 21  00 12 44.246   -11 42 02.70  .43539 1.3818 141.9 20.6 2.49 116
2026 08 14 22  00 12 45.391   -11 41 32.02  .43530 1.3818 141.9 20.6 2.54 116
2026 08 14 23  00 12 46.530   -11 41 01.34  .43520 1.3818 141.9 20.6 2.60 116
2026 08 15 00  00 12 47.664   -11 40 30.66  .43511 1.3818 142.0 20.6 2.65 116
2026 08 15 01  00 12 48.793   -11 39 59.97  .43501 1.3819 142.0 20.6 2.71 116
2026 08 15 02  00 12 49.915   -11 39 29.29  .43492 1.3819 142.0 20.6 2.76 116
2026 08 15 03  00 12 51.033   -11 38 58.60  .43482 1.3819 142.1 20.6 2.82 116
2026 08 15 04  00 12 52.144   -11 38 27.91  .43473 1.3819 142.1 20.6 2.88 115
2026 08 15 05  00 12 53.250   -11 37 57.23  .43464 1.3819 142.1 20.6 2.93 115
2026 08 15 06  00 12 54.351   -11 37 26.53  .43454 1.3819 142.2 20.6 2.99 115
2026 08 15 07  00 12 55.446   -11 36 55.84  .43445 1.3820 142.2 20.6 3.05 115
2026 08 15 08  00 12 56.535   -11 36 25.15  .43435 1.3820 142.2 20.6 3.11 115
2026 08 15 09  00 12 57.619   -11 35 54.46  .43426 1.3820 142.2 20.6 3.17 115
2026 08 15 10  00 12 58.697   -11 35 23.76  .43417 1.3820 142.3 20.6 3.23 115
2026 08 15 11  00 12 59.770   -11 34 53.07  .43407 1.3820 142.3 20.6 3.29 115
2026 08 15 12  00 13 00.837   -11 34 22.37  .43398 1.3821 142.3 20.6 3.35 115
2026 08 15 13  00 13 01.899   -11 33 51.67  .43389 1.3821 142.4 20.6 3.41 115
2026 08 15 14  00 13 02.955   -11 33 20.97  .43379 1.3821 142.4 20.6 3.47 115
2026 08 15 15  00 13 04.005   -11 32 50.27  .43370 1.3821 142.4 20.6 3.54 115
2026 08 15 16  00 13 05.050   -11 32 19.56  .43361 1.3821 142.5 20.6 3.60 115
2026 08 15 17  00 13 06.090   -11 31 48.86  .43352 1.3821 142.5 20.6 3.66 115
2026 08 15 18  00 13 07.123   -11 31 18.15  .43343 1.3822 142.5 20.6 3.73 115
2026 08 15 19  00 13 08.152   -11 30 47.45  .43333 1.3822 142.6 20.6 3.79 114
2026 08 15 20  00 13 09.174   -11 30 16.74  .43324 1.3822 142.6 20.6 3.86 114
2026 08 15 21  00 13 10.192   -11 29 46.03  .43315 1.3822 142.6 20.6 3.92 114
2026 08 15 22  00 13 11.203   -11 29 15.32  .43306 1.3822 142.7 20.6 3.99 114
2026 08 15 23  00 13 12.209   -11 28 44.61  .43297 1.3823 142.7 20.6 4.06 114
2026 08 16 00  00 13 13.210   -11 28 13.89  .43288 1.3823 142.7 20.6 4.13 114
2026 08 16 01  00 13 14.205   -11 27 43.18  .43279 1.3823 142.8 20.6 4.19 114